Tillbaka till svenska Fidonet
English   Information   Debug  
FILM   0/18
FNEWS_PUBLISH   4926
FN_SYSOP   42201
FN_SYSOP_OLD1   71952
FTP_FIDO   0/2
FTSC_PUBLIC   0/13973
FUNNY   0/4886
GENEALOGY.EUR   0/71
GET_INFO   105
GOLDED   0/408
HAM   11011/16661
HOLYSMOKE   0/6791
HOT_SITES   0/1
HTMLEDIT   0/71
HUB203   466
HUB_100   264
HUB_400   39
HUMOR   0/29
IC   0/2851
INTERNET   0/424
INTERUSER   0/3
IP_CONNECT   719
JAMNNTPD   0/233
JAMTLAND   0/47
KATTY_KORNER   0/41
LAN   0/16
LINUX-USER   0/19
LINUXHELP   0/1155
LINUX   0/22300
LINUX_BBS   0/957
mail   18.68
mail_fore_ok   249
MENSA   0/341
MODERATOR   0/102
MONTE   0/992
MOSCOW_OKLAHOMA   0/1245
MUFFIN   0/783
MUSIC   0/321
N203_STAT   938
N203_SYSCHAT   313
NET203   321
NET204   69
NET_DEV   0/10
NORD.ADMIN   0/101
NORD.CHAT   0/2572
NORD.FIDONET   189
NORD.HARDWARE   0/28
NORD.KULTUR   0/114
NORD.PROG   0/32
NORD.SOFTWARE   0/88
NORD.TEKNIK   0/58
NORD   0/453
OCCULT_CHAT   0/93
OS2BBS   0/787
OS2DOSBBS   0/580
OS2HW   0/42
OS2INET   0/37
OS2LAN   0/134
OS2PROG   0/36
OS2REXX   0/113
OS2USER-L   207
OS2   0/4830
OSDEBATE   0/18996
PASCAL   0/490
PERL   0/457
PHP   0/45
POINTS   0/405
POLITICS   0/29554
POL_INC   0/14731
PSION   103
R20_ADMIN   1133
R20_AMATORRADIO   0/2
R20_BEST_OF_FIDONET   16
R20_CHAT   0/896
R20_DEPP   0/3
R20_DEV   400
R20_ECHO2   1831
R20_ECHOPRES   0/35
R20_ESTAT   0/719
R20_FIDONETPROG...
...RAM.MYPOINT
  0/2
R20_FIDONETPROGRAM   0/22
R20_FIDONET   0/248
R20_FILEFIND   0/24
R20_FILEFOUND   0/22
R20_HIFI   0/3
R20_INFO2   3724
R20_INTERNET   0/12940
R20_INTRESSE   0/60
R20_INTR_KOM   0/99
R20_KANDIDAT.CHAT   42
R20_KANDIDAT   28
R20_KOM_DEV   112
R20_KONTROLL   0/13360
R20_KORSET   0/18
R20_LOKALTRAFIK   0/24
R20_MODERATOR   278/1852
R20_NC   76
R20_NET200   245
R20_NETWORK.OTH...
...ERNETS
  0/13
R20_OPERATIVSYS...
...TEM.LINUX
  0/44
R20_PROGRAMVAROR   0/1
R20_REC2NEC   534
R20_SFOSM   0/341
R20_SF   0/108
R20_SPRAK.ENGLISH   0/1
R20_SQUISH   107
R20_TEST   2
R20_WORST_OF_FIDONET   20
RAR   0/9
RA_MULTI   106
RA_UTIL   0/162
REGCON.EUR   0/2068
REGCON   0/13
SCIENCE   0/1206
SF   0/239
SHAREWARE_SUPPORT   0/5146
SHAREWRE   0/14
SIMPSONS   0/169
STATS_OLD1   0/2539.065
STATS_OLD2   0/2530
STATS_OLD3   0/2395.095
STATS_OLD4   0/1692.25
SURVIVOR   0/495
SYSOPS_CORNER   0/3
SYSOP   0/84
TAGLINES   0/112
TEAMOS2   0/4530
TECH   0/2617
TEST.444   0/105
TRAPDOOR   0/19
TREK   0/755
TUB   0/290
UFO   0/40
UNIX   0/1316
USA_EURLINK   0/102
USR_MODEMS   0/1
VATICAN   0/2740
VIETNAM_VETS   0/14
VIRUS   0/378
VIRUS_INFO   0/201
VISUAL_BASIC   0/473
WHITEHOUSE   0/5187
WIN2000   0/101
WIN32   0/30
WIN95   2623/4291
WIN95_OLD1   0/70272
WINDOWS   0/1517
WWB_SYSOP   0/419
WWB_TECH   0/810
ZCC-PUBLIC   0/1
ZEC   4

 
4DOS   0/134
ABORTION   0/7
ALASKA_CHAT   0/506
ALLFIX_FILE   0/1313
ALLFIX_FILE_OLD1   0/7997
ALT_DOS   0/152
AMATEUR_RADIO   0/1039
AMIGASALE   0/14
AMIGA   0/331
AMIGA_INT   0/1
AMIGA_PROG   0/20
AMIGA_SYSOP   0/26
ANIME   0/15
ARGUS   0/924
ASCII_ART   0/340
ASIAN_LINK   0/651
ASTRONOMY   0/417
AUDIO   0/92
AUTOMOBILE_RACING   0/105
BABYLON5   0/17862
BAG   135
BATPOWER   0/361
BBBS.ENGLISH   0/382
BBSLAW   0/109
BBS_ADS   0/5290
BBS_INTERNET   0/507
BIBLE   0/3563
BINKD   0/1119
BINKLEY   0/215
BLUEWAVE   0/2173
CABLE_MODEMS   0/25
CBM   0/46
CDRECORD   0/66
CDROM   0/20
CLASSIC_COMPUTER   0/378
COMICS   0/15
CONSPRCY   0/899
COOKING   41457
COOKING_OLD1   0/24719
COOKING_OLD2   0/40862
COOKING_OLD3   0/37489
COOKING_OLD4   0/35496
COOKING_OLD5   9370
C_ECHO   0/189
C_PLUSPLUS   0/31
DIRTY_DOZEN   0/201
DOORGAMES   0/2289
DOS_INTERNET   0/196
duplikat   6102
ECHOLIST   0/18295
EC_SUPPORT   0/318
ELECTRONICS   0/359
ELEKTRONIK.GER   1534
ENET.LINGUISTIC   0/13
ENET.POLITICS   0/4
ENET.SOFT   0/11701
ENET.SYSOP   34296
ENET.TALKS   0/32
ENGLISH_TUTOR   0/2000
EVOLUTION   0/1335
FDECHO   0/217
FDN_ANNOUNCE   0/7068
FIDONEWS   25062
FIDONEWS_OLD1   32196/49742
FIDONEWS_OLD2   0/35949
FIDONEWS_OLD3   5638/30874
FIDONEWS_OLD4   173/37224
FIDO_SYSOP   12922
FIDO_UTIL   0/180
FILEFIND   0/209
FILEGATE   0/212
Möte HAM, 16661 texter
 lista första sista föregående nästa
Text 1001, 763 rader
Skriven 2006-05-12 00:30:49 av Amsat List (1:323/120.0)
Ärende: 
========
SB KEPS @ AMSAT  $ORB06131.O
Orbital Elements  06131.OSCAR

HR AMSAT ORBITAL ELEMENTS FOR OSCAR SATELLITES
FROM WA5QGD FORT WORTH,TX May 11, 2006
Send SUBSCRIBE KEPS/UNSUBSCRIBE KEPS to majordomo@amsat.org only
BID: ORB06131.O
TO ALL RADIO AMATEURS BT

Satellite: AO-07
Catalog number: 07530
Epoch time:      06130.83712188
Element set:    0590
Inclination:      101.5719 deg
RA of node:       174.6959 deg
Eccentricity:    0.0011903
Arg of perigee:   319.9687 deg
Mean anomaly:     040.0505 deg
Mean motion:   12.53571913 rev/day
Decay rate:       -2.8e-07 rev/day^2
Epoch rev:           44070
Checksum:              294

Satellite: AO-10
Catalog number: 14129
Epoch time:      06128.94624317
Element set:    0281
Inclination:      027.4326 deg
RA of node:       336.0124 deg
Eccentricity:    0.6031816
Arg of perigee:   283.4990 deg
Mean anomaly:     019.1812 deg
Mean motion:   02.05862746 rev/day
Decay rate:        1.0e-08 rev/day^2
Epoch rev:           17224
Checksum:              276

Satellite: UO-11
Catalog number: 14781
Epoch time:      06130.57927268
Element set:      64
Inclination:      098.2076 deg
RA of node:       139.9983 deg
Eccentricity:    0.0010010
Arg of perigee:   031.3063 deg
Mean anomaly:     328.8744 deg
Mean motion:   14.79418249 rev/day
Decay rate:        3.0e-07 rev/day^2
Epoch rev:           19020
Checksum:              292

Satellite: RS-10/11
Catalog number: 18129
Epoch time:      06130.79432826
Element set:     984
Inclination:      082.9268 deg
RA of node:       355.8247 deg
Eccentricity:    0.0010806
Arg of perigee:   190.4809 deg
Mean anomaly:     169.6121 deg
Mean motion:   13.72774165 rev/day
Decay rate:        3.2e-07 rev/day^2
Epoch rev:           94602
Checksum:              317

Satellite: RS-15
Catalog number: 23439
Epoch time:      06130.94289660
Element set:    0968
Inclination:      064.8175 deg
RA of node:       297.4626 deg
Eccentricity:    0.0167673
Arg of perigee:   260.2650 deg
Mean anomaly:     097.9303 deg
Mean motion:   11.27551434 rev/day
Decay rate:       -3.9e-07 rev/day^2
Epoch rev:           46834
Checksum:              335

Satellite: FO-29
Catalog number: 24278
Epoch time:      06131.56418360
Element set:     226
Inclination:      098.5119 deg
RA of node:       141.1574 deg
Eccentricity:    0.0351516
Arg of perigee:   044.8210 deg
Mean anomaly:     318.0761 deg
Mean motion:   13.52921142 rev/day
Decay rate:        4.0e-08 rev/day^2
Epoch rev:           48059
Checksum:              282

Satellite: SO-33
Catalog number: 25509
Epoch time:      06130.76657060
Element set:     648
Inclination:      031.4293 deg
RA of node:       340.8525 deg
Eccentricity:    0.0354617
Arg of perigee:   149.3635 deg
Mean anomaly:     212.8251 deg
Mean motion:   14.28101141 rev/day
Decay rate:       2.91e-06 rev/day^2
Epoch rev:           39368
Checksum:              293

Satellite: AO-40
Catalog number: 26609
Epoch time:      06131.02686475
Element set:     719
Inclination:      006.8961 deg
RA of node:       242.3431 deg
Eccentricity:    0.7941818
Arg of perigee:   158.9136 deg
Mean anomaly:     275.1642 deg
Mean motion:   01.25582840 rev/day
Decay rate:      .00000000 rev/day^2
Epoch rev:            2538
Checksum:              296

Satellite: VO-52
Catalog number: 28650
Epoch time:      06130.76203737
Element set:     320
Inclination:      097.8717 deg
RA of node:       204.4592 deg
Eccentricity:    0.0028337
Arg of perigee:   121.9009 deg
Mean anomaly:     238.4996 deg
Mean motion:   14.81107790 rev/day
Decay rate:       3.54e-06 rev/day^2
Epoch rev:            5484
Checksum:              310

/EX
SB KEPS @ AMSAT  $ORB06131.D
Orbital Elements  06131.MICROS

HR AMSAT ORBITAL ELEMENTS FOR THE MICROSATS
FROM WA5QGD FORT WORTH,TX May 11, 2006
Send SUBSCRIBE KEPS/UNSUBSCRIBE KEPS to majordomo@amsat.org only
BID: ORB06131.D
TO ALL RADIO AMATEURS BT

Satellite: AO-16
Catalog number: 20439
Epoch time:      06130.62049577
Element set:     742
Inclination:      098.1882 deg
RA of node:       142.6762 deg
Eccentricity:    0.0010416
Arg of perigee:   311.5561 deg
Mean anomaly:     048.4723 deg
Mean motion:   14.31720447 rev/day
Decay rate:        3.9e-07 rev/day^2
Epoch rev:           85094
Checksum:              296

Satellite: WO-18
Catalog number: 20441
Epoch time:      06131.44734086
Element set:     942
Inclination:      098.1926 deg
RA of node:       148.0678 deg
Eccentricity:    0.0011503
Arg of perigee:   310.3966 deg
Mean anomaly:     049.6214 deg
Mean motion:   14.31790830 rev/day
Decay rate:        2.1e-07 rev/day^2
Epoch rev:           85112
Checksum:              282

Satellite: LO-19
Catalog number: 20442
Epoch time:      06130.65701432
Element set:     679
Inclination:      098.1922 deg
RA of node:       152.1523 deg
Eccentricity:    0.0011473
Arg of perigee:   311.0485 deg
Mean anomaly:     048.9708 deg
Mean motion:   14.31963550 rev/day
Decay rate:        2.6e-07 rev/day^2
Epoch rev:           85108
Checksum:              284

Satellite: UO-22
Catalog number: 21575
Epoch time:      06131.41986646
Element set:     696
Inclination:      098.2929 deg
RA of node:       090.2838 deg
Eccentricity:    0.0007190
Arg of perigee:   173.8790 deg
Mean anomaly:     186.2483 deg
Mean motion:   14.39547162 rev/day
Decay rate:       -8.0e-08 rev/day^2
Epoch rev:           77772
Checksum:              346

Satellite: KO-23
Catalog number: 22077
Epoch time:      06130.59122572
Element set:    0788
Inclination:      066.0847 deg
RA of node:       180.7836 deg
Eccentricity:    0.0001434
Arg of perigee:   164.7264 deg
Mean anomaly:     195.3796 deg
Mean motion:   12.86436451 rev/day
Decay rate:       -3.7e-07 rev/day^2
Epoch rev:           64570
Checksum:              319

